This demonstration page uses our WeatherBlox Daily Observations layout. Learn more.

36.17497, -115.13722

Hourly Observations for July 30, 2016

Temp ( °F °C ) Dew Point ( °F °C ) Humidity (%) Winds ( mph kmh ) Pressure ( in mb ) Visibility ( mi km ) Precip ( " mm )
12:53 am 00:53 Clear 96 35.6 50 10 21 21 S 7 11 29.59 1002 10 16.09344 0 0
1:53 am 01:53 Clear 95 35 51 10.6 23 23 WSW 5 7 29.59 1002 10 16.09344 0 0
2:53 am 02:53 Clear 93 33.9 50 10 23 23 S 10 17 29.62 1003 10 16.09344 0 0
3:28 am 03:28 Hazy 91 33 57 14 32 32 S 14 22 29.65 1004 5 8.04672 0 0
3:39 am 03:39 Mostly Cloudy with Haze 90 32.2 60 15.6 37 37 S 16 26 29.65 1004 4 6.437376 0 0
3:53 am 03:53 Cloudy with Haze 88 31.1 61 16.1 40 40 S 21 33 29.65 1004 3 4.828032 0 0
4:53 am 04:53 Cloudy with Haze 87 30.6 60 15.6 40 40 SSE 15 24 29.71 1006 4 6.437376 0 0
5:08 am 05:08 Cloudy with Haze 88 31 61 16 40 40 SE 10 17 29.71 1006 5 8.04672 0 0
5:53 am 05:53 Cloudy 86 30 59 15 40 40 SSE 9 15 29.74 1007 7 11.265408 0 0
6:53 am 06:53 Cloudy 86 30 59 15 40 40 S 7 11 29.74 1007 7 11.265408 0 0
7:53 am 07:53 Cloudy with Haze 88 31.1 59 15 38 38 S 8 13 29.77 1008 6 9.656064 0 0
8:14 am 08:14 Cloudy with Haze 90 32 59 15 36 36 SSE 7 11 29.74 1007 6 9.656064 0 0
8:53 am 08:53 Cloudy with Haze 91 32.8 60 15.6 35 35 S 6 9 29.74 1007 4 6.437376 0 0
9:53 am 09:53 Cloudy with Haze 96 35.6 59 15 29 29 S 10 17 29.68 1005 4 6.437376 0 0
10:53 am 10:53 Cloudy with Haze 97 36.1 58 14.4 27 27 E 5 7 29.68 1005 4 6.437376 0 0
11:53 am 11:53 Cloudy with Haze 99 37.2 58 14.4 26 26 N 6 9 29.65 1004 4 6.437376 0 0
12:53 pm 12:53 Cloudy with Haze 101 38.3 57 13.9 23 23 SSE 3 6 29.62 1003 5 8.04672 0 0
1:53 pm 13:53 Cloudy with Haze 101 38.3 57 13.9 23 23 N 5 7 29.59 1002 5 8.04672 0 0
2:53 pm 14:53 Cloudy with Haze 104 40 54 12.2 19 19 SE 7 11 29.53 1000 6 9.656064 0 0
3:53 pm 15:53 Cloudy 103 39.4 58 14.4 23 23 ESE 14 22 29.5 999 8 12.874752 0 0
4:28 pm 16:28 Partly Cloudy 102 38.9 57 13.9 23 23 ESE 10 17 29.5 999 10 16.09344 0 0
4:53 pm 16:53 Sunny 101 38.3 60 15.6 26 26 SE 18 30 29.5 999 10 16.09344 0 0
5:53 pm 17:53 Sunny 102 38.9 59 15 24 24 SE 13 20 29.47 998 10 16.09344 0 0
6:53 pm 18:53 Sunny 101 38.3 55 12.8 22 22 ESE 9 15 29.47 998 10 16.09344 0 0
7:53 pm 19:53 Clear 96 35.6 57 13.9 27 27 ESE 12 19 29.5 999 10 16.09344 0 0
8:53 pm 20:53 Clear 95 35 58 14.4 29 29 E 9 15 29.53 1000 10 16.09344 0 0
9:53 pm 21:53 Clear 93 33.9 58 14.4 31 31 E 7 11 29.59 1002 10 16.09344 0 0
10:53 pm 22:53 Clear 92 33.3 58 14.4 32 32 E 14 22 29.59 1002 10 16.09344 0 0
11:53 pm 23:53 Clear 91 32.8 60 15.6 35 35 ENE 17 28 29.65 1004 10 16.09344 0 0

Powered by AerisWeather